Simultaneous Nadir Overpasses (SNOs) Predictions

Prediction of SNOs between NOAA-20 and NOAA-19 Satellite Orbit:

Table of predicted SNOs for the next 14.0 days since TLE Epoch: 2/22/2019
Index Date (NOAA-20) Time (NOAA-20) Lat,Lon (NOAA-20) SZA (NOAA-20 ) Date (NOAA-19) Time (NOAA-19) Lat,Lon (NOAA-19) SZA (NOAA-19 ) Distance(km) Time Diff (sec)
1 02/22/2019 22:47:07 80.23, 156.80 93.00 02/22/2019 22:47:30 80.23, 156.81 92.99 0.80 23
2 02/22/2019 23:37:52 -80.24, -36.00 87.00 02/22/2019 23:38:36 -80.23, -36.02 87.02 0.68 44
3 02/23/2019 00:28:37 80.23, 131.40 92.98 02/23/2019 00:29:31 80.23, 131.28 92.97 2.33 54
4 02/23/2019 01:19:22 -80.24, -61.40 87.02 02/23/2019 01:20:37 -80.23, -61.54 87.05 2.85 75
5 03/08/2019 15:48:32 -80.19, 81.89 92.33 03/08/2019 15:47:30 -80.21, 81.94 92.29 2.24 62
6 03/08/2019 16:39:18 80.21,-111.07 87.71 03/08/2019 16:38:28 80.19,-111.08 87.72 2.62 50
7 03/08/2019 17:30:02 -80.19, 56.50 92.35 03/08/2019 17:29:31 -80.21, 56.41 92.32 2.29 31
8 03/08/2019 18:20:47 80.19,-136.15 87.63 03/08/2019 18:20:28 80.21,-136.28 87.67 3.39 19
9 03/08/2019 19:11:33 -80.22, 30.79 92.32 03/08/2019 19:11:32 -80.21, 30.89 92.34 2.48 1
10 03/08/2019 20:02:18 80.22,-161.86 87.66 03/08/2019 20:02:29 80.21,-161.80 87.64 1.46 11
11 03/08/2019 20:53:03 -80.22, 5.40 92.35 03/08/2019 20:53:33 -80.20, 5.36 92.37 2.18 30




NCC Satellite Simultaneous Nadir Overpasses (SNOs) Prediction Service
